Hourly Weather Bolshoe Ivahnovo

Today, 30 July, Friday

Time Temperature Precipitation Wind Pressure Humidity
00:00 +17°C° 0 mm 2 mps 733 mmHg 91%
01:00 +18°C° 0 mm 1 mps 733 mmHg 93%
02:00 +18°C° 0 mm 1 mps 733 mmHg 95%
03:00 +18°C° 0.1 mm 1 mps 733 mmHg 95%
04:00 +18°C° 0.1 mm 1 mps 733 mmHg 95%
05:00 +18°C° 0.1 mm 1 mps 733 mmHg 96%
06:00 +19°C° 0.3 mm 1 mps 733 mmHg 94%
07:00 +19°C° 0.3 mm 2 mps 733 mmHg 92%
08:00 +20°C° 0.3 mm 2 mps 733 mmHg 90%
09:00 +20°C° 0.4 mm 2 mps 733 mmHg 89%
10:00 +20°C° 0.4 mm 2 mps 733 mmHg 88%
11:00 +20°C° 0.4 mm 2 mps 733 mmHg 87%
12:00 +21°C° 0.4 mm 2 mps 733 mmHg 81%
13:00 +23°C° 0.4 mm 2 mps 733 mmHg 76%
14:00 +24°C° 0.4 mm 3 mps 732 mmHg 70%
15:00 +23°C° 0.5 mm 2 mps 732 mmHg 74%
16:00 +23°C° 0.5 mm 2 mps 732 mmHg 77%
17:00 +21°C° 0.5 mm 2 mps 732 mmHg 80%
18:00 +19°C° 0.3 mm 2 mps 732 mmHg 84%
19:00 +18°C° 0.3 mm 2 mps 732 mmHg 88%
20:00 +16°C° 0.3 mm 1 mps 732 mmHg 92%
21:00 +16°C° 0 mm 2 mps 732 mmHg 91%
22:00 +16°C° 0 mm 2 mps 732 mmHg 91%
23:00 +16°C° 0 mm 3 mps 732 mmHg 90%

Tomorrow, 31 July, Saturday

Time Temperature Precipitation Wind Pressure Humidity
00:00 +14°C° 0 mm 3 mps 731 mmHg 89%
01:00 +14°C° 0 mm 3 mps 731 mmHg 88%
02:00 +13°C° 0 mm 3 mps 731 mmHg 87%
03:00 +13°C° 0 mm 3 mps 731 mmHg 86%
04:00 +13°C° 0 mm 4 mps 731 mmHg 85%
05:00 +13°C° 0 mm 4 mps 731 mmHg 84%
06:00 +15°C° 0 mm 5 mps 731 mmHg 77%
07:00 +16°C° 0 mm 5 mps 731 mmHg 69%
08:00 +19°C° 0 mm 5 mps 731 mmHg 62%
09:00 +19°C° 0 mm 5 mps 731 mmHg 63%
10:00 +20°C° 0 mm 5 mps 731 mmHg 63%
11:00 +20°C° 0 mm 5 mps 732 mmHg 64%
12:00 +21°C° 0.1 mm 5 mps 732 mmHg 64%
13:00 +21°C° 0.1 mm 5 mps 732 mmHg 65%
14:00 +21°C° 0.1 mm 5 mps 733 mmHg 66%
15:00 +22°C° 0.2 mm 5 mps 733 mmHg 66%
16:00 +22°C° 0.2 mm 4 mps 733 mmHg 67%
17:00 +22°C° 0.2 mm 4 mps 733 mmHg 67%
18:00 +21°C° 0 mm 3 mps 733 mmHg 73%
19:00 +19°C° 0 mm 2 mps 734 mmHg 80%
20:00 +18°C° 0 mm 2 mps 734 mmHg 86%
21:00 +17°C° 0 mm 2 mps 734 mmHg 88%
22:00 +16°C° 0 mm 2 mps 734 mmHg 90%
23:00 +16°C° 0 mm 2 mps 734 mmHg 93%

Day after tomorrow, 1 August, Sunday

Time Temperature Precipitation Wind Pressure Humidity
00:00 +16°C° 0 mm 2 mps 734 mmHg 91%
01:00 +16°C° 0 mm 2 mps 734 mmHg 90%
02:00 +16°C° 0 mm 2 mps 734 mmHg 88%
03:00 +16°C° 0 mm 2 mps 734 mmHg 86%
04:00 +16°C° 0 mm 2 mps 734 mmHg 83%
05:00 +17°C° 0 mm 2 mps 735 mmHg 81%
06:00 +16°C° 0.4 mm 2 mps 734 mmHg 86%
07:00 +16°C° 0.4 mm 2 mps 734 mmHg 92%
08:00 +16°C° 0.4 mm 2 mps 734 mmHg 97%
09:00 +16°C° 0.4 mm 2 mps 734 mmHg 97%
10:00 +16°C° 0.4 mm 2 mps 734 mmHg 98%
11:00 +17°C° 0.4 mm 2 mps 734 mmHg 98%
12:00 +18°C° 0 mm 3 mps 734 mmHg 92%
13:00 +20°C° 0 mm 3 mps 734 mmHg 86%
14:00 +22°C° 0 mm 4 mps 734 mmHg 80%
15:00 +24°C° 0.1 mm 3 mps 734 mmHg 73%
16:00 +25°C° 0.1 mm 3 mps 734 mmHg 65%
17:00 +26°C° 0.1 mm 2 mps 734 mmHg 58%
18:00 +24°C° 0 mm 2 mps 734 mmHg 67%
19:00 +21°C° 0 mm 2 mps 734 mmHg 76%
20:00 +19°C° 0 mm 2 mps 734 mmHg 84%
21:00 +18°C° 0 mm 2 mps 734 mmHg 86%
22:00 +18°C° 0 mm 1 mps 734 mmHg 87%
23:00 +16°C° 0 mm 1 mps 734 mmHg 89%

2 August, Monday

Time Temperature Precipitation Wind Pressure Humidity
00:00 +18°C° 0 mm 1 mps 734 mmHg 85%
01:00 +18°C° 0 mm 1 mps 734 mmHg 82%
02:00 +18°C° 0 mm 1 mps 734 mmHg 79%
03:00 +18°C° 0 mm 1 mps 734 mmHg 79%
04:00 +18°C° 0 mm 1 mps 734 mmHg 79%
05:00 +18°C° 0 mm 1 mps 734 mmHg 80%
06:00 +19°C° 0 mm 1 mps 734 mmHg 74%
07:00 +21°C° 0 mm 1 mps 734 mmHg 68%
08:00 +23°C° 0 mm 1 mps 734 mmHg 62%
09:00 +23°C° 0 mm 1 mps 734 mmHg 61%
10:00 +23°C° 0 mm 1 mps 734 mmHg 61%
11:00 +24°C° 0 mm 2 mps 733 mmHg 61%
12:00 +21°C° 0.2 mm 2 mps 733 mmHg 69%
13:00 +20°C° 0.2 mm 2 mps 733 mmHg 77%
14:00 +20°C° 0.2 mm 1 mps 732 mmHg 85%
15:00 +19°C° 0.6 mm 2 mps 732 mmHg 88%
16:00 +19°C° 0.6 mm 2 mps 732 mmHg 91%
17:00 +18°C° 0.6 mm 3 mps 731 mmHg 94%
18:00 +18°C° 0.6 mm 2 mps 731 mmHg 95%
19:00 +18°C° 0.6 mm 2 mps 731 mmHg 96%
20:00 +17°C° 0.6 mm 2 mps 730 mmHg 98%
21:00 +17°C° 0 mm 2 mps 731 mmHg 98%
22:00 +16°C° 0 mm 2 mps 731 mmHg 98%
23:00 +16°C° 0 mm 2 mps 731 mmHg 98%

3 August, Tuesday

Time Temperature Precipitation Wind Pressure Humidity
00:00 +14°C° 0 mm 3 mps 732 mmHg 98%
01:00 +14°C° 0 mm 3 mps 732 mmHg 97%
02:00 +14°C° 0 mm 3 mps 732 mmHg 97%
03:00 +13°C° 0 mm 3 mps 733 mmHg 97%
04:00 +14°C° 0 mm 2 mps 733 mmHg 97%
05:00 +14°C° 0 mm 2 mps 733 mmHg 98%
06:00 +14°C° 0 mm 3 mps 734 mmHg 92%
07:00 +16°C° 0 mm 3 mps 734 mmHg 87%
08:00 +17°C° 0 mm 4 mps 734 mmHg 82%
09:00 +19°C° 0 mm 4 mps 735 mmHg 72%
10:00 +20°C° 0 mm 4 mps 735 mmHg 63%
11:00 +21°C° 0 mm 4 mps 735 mmHg 54%
12:00 +22°C° 0 mm 4 mps 736 mmHg 49%
13:00 +23°C° 0 mm 4 mps 736 mmHg 44%
14:00 +23°C° 0 mm 4 mps 736 mmHg 40%
15:00 +23°C° 0 mm 4 mps 736 mmHg 44%
16:00 +22°C° 0 mm 4 mps 736 mmHg 48%
17:00 +21°C° 0 mm 3 mps 737 mmHg 53%
18:00 +19°C° 0 mm 3 mps 737 mmHg 62%
19:00 +17°C° 0 mm 2 mps 738 mmHg 72%
20:00 +15°C° 0 mm 1 mps 738 mmHg 81%
21:00 +15°C° 0 mm 1 mps 738 mmHg 85%
22:00 +14°C° 0 mm 1 mps 739 mmHg 88%
23:00 +13°C° 0 mm 1 mps 739 mmHg 92%

4 August, Wednesday

Time Temperature Precipitation Wind Pressure Humidity
00:00 +13°C° 0 mm 1 mps 739 mmHg 92%
01:00 +12°C° 0 mm 1 mps 740 mmHg 93%
02:00 +11°C° 0 mm 1 mps 740 mmHg 93%
03:00 +11°C° 0 mm 1 mps 740 mmHg 92%
04:00 +11°C° 0 mm 1 mps 741 mmHg 91%
05:00 +11°C° 0 mm 1 mps 741 mmHg 90%
06:00 +13°C° 0 mm 1 mps 741 mmHg 82%
07:00 +15°C° 0 mm 1 mps 742 mmHg 73%
08:00 +18°C° 0 mm 1 mps 742 mmHg 65%
09:00 +20°C° 0 mm 1 mps 742 mmHg 58%
10:00 +21°C° 0 mm 1 mps 742 mmHg 50%
11:00 +23°C° 0 mm 1 mps 743 mmHg 43%
12:00 +23°C° 0 mm 1 mps 743 mmHg 41%
13:00 +24°C° 0 mm 1 mps 743 mmHg 38%
14:00 +24°C° 0 mm 1 mps 743 mmHg 36%
15:00 +24°C° 0 mm 1 mps 743 mmHg 39%
16:00 +23°C° 0 mm 1 mps 743 mmHg 42%
17:00 +23°C° 0 mm 2 mps 743 mmHg 45%
18:00 +20°C° 0 mm 2 mps 743 mmHg 52%
19:00 +18°C° 0 mm 2 mps 743 mmHg 58%
20:00 +16°C° 0 mm 2 mps 743 mmHg 65%
21:00 +15°C° 0 mm 2 mps 743 mmHg 69%
22:00 +15°C° 0 mm 2 mps 743 mmHg 72%
23:00 +14°C° 0 mm 2 mps 743 mmHg 76%
Show more

We Need Your Consent

Meteoprog and our Service Providers may store and access personal data such as cookies, device identifiers or other similar technologies on your device and process such data to personalise content and ads, as well as provide social media features and to analyse the traffic.

  • Store and/or access information on your device

    Cookies, device identifiers or other information can be stored or accessed on your device for the purposes indicated above.

  • Personalised ads and content, ad and content measurement, audience insights, and products development

    Ads and content can be personalised based on a profile. More data can be added to better personalise ads and content. Ad and content performance can be measured. Insights about the audience who saw the ads and content can be derived. Such data can be used to develop or improve user’s experience, systems and software.

By clicking ‘I Agree’ you will allow the use of indicated cookies, device identifiers, web beacons or other similar technologies. Your settings can be changed in the browser on your device.

For certain purposes, legitimate interests may be relied on, rather than consent. You can read more about this in our Privacy and Cookie Policy.